Powrót do katalogu

FREGAT DEB

LostUNKNOWN
NORAD 45896·DEBRIS·🇷🇺 Russia

Wystrzelony Jul 18, 2011 z Baikonur Cosmodrome

Loading…

Następne Przeloty (najbliższe 24 godziny)

TLE

NieaktualneSource: Space-Track

Epoka: Aug 31, 2020, 03:42 UTC

1 45896U 11037DR  20244.15451044 -.00005326  00000-0 -55359-1 0  9996
2 45896  51.7176 241.0462 1909040 115.3700 265.6568  9.82193209  5174

Śledź FREGAT DEB w czasie rzeczywistym z AllMySat

Download on the App Store